Tracking 17631 objects as of 4-May-2016
HD Live streaming from Space Station
objects crossing your sky now

METEOSAT 5 AKM

Track METEOSAT 5 AKM now!


NORAD ID: 21904
Int'l Code: 1991-015E
Perigee: 35,152.7 km
Apogee: 36,490.1 km
Inclination: 14.4 °
Period: 1,437.5 minutes
Semi major axis: 42192 km
RCS: 0.9471 m2 (medium)
Launch date: March 2, 1991
Source: European Space Agency (ESA)
Launch site: FRENCH GUIANA (FRGUI)

Note: This is a ROCKET BODY
Your satellite tracking list
Your tracking list is empty





NASA's NSSDC Master Catalog

Two Line Element Set (TLE):
1 21904U 91015E   16124.45613192 -.00000148  00000-0  00000+0 0  9990
2 21904  14.4164   9.5012 0158498 136.6246  45.8198  1.00173207 79460
Source of the keplerian elements: AFSPC

N2YO: 322